Location: Newark
(41.6500°N, 71.4833°W)
Time: 12:02:19
(UTC+00:00)

Courier 1B - Pass Details

Date: 24 January 2020
Orbit: 962 x 1209 km, 28.3° (Epoch: 20 February)

Event Time Altitude Azimuth Distance (km) Brightness Sun altitude
Rises 11:29:08 0° 256° (WSW) 4,026 - -7.1°
Exits shadow 11:29:27 - 256° (WSW) 3,933 10.2 -7.0°
Reaches altitude 10° 11:32:28 10° 244° (WSW) 3,093 9.7 -6.5°
Maximum altitude 11:38:27 25° 193° (SSW) 2,210 9.5 -5.5°
Drops below altitude 10° 11:44:31 10° 142° (SE) 3,139 11.3 -4.4°
Sets 11:47:57 0° 130° (SE) 4,098 12.5 -3.8°
